User: anonymous   Login
Location: Cedar Falls
(42.5280°N, 92.4450°W)
Time: 03:25:21
(UTC-05:00)
Language:

NOSS 3-1 (C) - Orbit

View from above orbital plane
View from above orbital plane
View from above satellite
View from above satellite

Ground track
Ground track

The orbit data is extracted from the following two-line orbital elements,

1 26907U 01040C   16205.93395450 0.00000000  00000-0  00000-0 0    04
2 26907  63.4158 147.4384 0344000 358.6599   1.3401 13.41255617    04
Epoch (UTC): 23 July 2016 22:24:53
Eccentricity: 0.0344000
inclination: 63.4158°
perigee height: 847 km
apogee height: 1362 km
right ascension of ascending node: 147.4384°
argument of perigee: 358.6599°
revolutions per day: 13.41255617
mean anomaly at epoch: 1.3401°
orbit number at epoch: 0

The dashed part of the orbit path shows where the satellite is in the earth's shadow,  

DLR